Regional Weather Roundup
Issued by NWS Bismarck, ND

Home | Current Version | Previous Version | Text Only | Print | Product List | Glossary On
Versions: 1 2 3 4 5 6 7 8 9 10 11 12 13 14 15 16 17 18 19 20 21 22 23 24 25 26 27 28 29 30 31 32 33 34 35 36 37 38 39 40 41 42 43 44 45 46 47 48 49 50
000
ASUS43 KBIS 170620
RWRBIS

NWR BROADCAST TEXT
NATIONAL WEATHER SERVICE BISMARCK ND
100 AM CDT WED SEP 17 2014

NOTE: "FAIR" INDICATES FEW OR NO CLOUDS BELOW 12,000 FEET WITH NO
SIGNIFICANT WEATHER AND/OR OBSTRUCTIONS TO VISIBILITY.


CITY           SKY/WX    TMP DP  RH WIND       PRES   REMARKS
WILLISTON      CLEAR     41  36  82 CALM      29.93S HAZE
MINOT          CLEAR     50  44  80 SW7       29.91S
MINOT AFB      CLEAR     43  41  93 W7        29.91R
BISMARCK       CLEAR     46  42  86 VRB3      29.94R
DICKINSON      PTCLDY    51  42  71 S3        29.94R
GARRISON         N/A     46  42  86 NE5       29.93R
HETTINGER ARPT MOCLDY    48  43  82 W3        29.95S
JAMESTOWN      CLEAR     46  42  86 CALM      29.91S
BEACH            N/A     46  46 100 CALM      29.95S
CARRINGTON     FAIR      43  43 100 S8        29.93S
CROSBY         FAIR      48  45  87 SW9       29.92S
HARVEY         FAIR      45  41  87 W3        29.92S
HAZEN          MOCLDY    37  36  93 CALM      29.95R
LINTON         FAIR      46  46 100 E8        29.92S
MANDAN         FAIR      48  45  87 NE3       29.94R
OAKES            N/A     46  46 100 CALM      29.91S
RUGBY          FAIR      48  45  87 S6        29.91S
STANLEY        FAIR      45  39  81 SW3       29.94R
TIOGA          FAIR      39  39 100 CALM      29.97R
WATFORD CITY   FAIR      41  37  87 CALM      29.93R
$$

CITY           SKY/WX    TMP DP  RH WIND       PRES   REMARKS
GRAND FORKS    CLEAR     48  43  82 S7        29.90S
GRAND FORKS AF CLEAR     48  44  85 S5        29.91S
DEVILS LAKE    CLEAR     50  39  66 W5        29.90S
FARGO          CLEAR     57  46  66 SE8       29.91S
CANDO          FAIR      46  41  81 SW3       29.92S
CAVALIER       FAIR      54  41  62 SW7       29.89S
GRAFTON        FAIR      48  41  76 SW7       29.90R
GWINNER        CLEAR     50  50 100 SW8       29.91F
LANGDON        FAIR      41  36  81 SW7       29.91S
ROLLA          FAIR      46  43  87 SW7       29.92S
WALHALLA       FAIR      57  41  54 W6        29.89S
$$

CITY           SKY/WX    TMP DP  RH WIND       PRES   REMARKS
ABERDEEN       CLEAR     48  47  96 CALM      29.91S
MOBRIDGE       MOCLDY    56  51  84 E8        29.88S
BUFFALO          N/A     56  45  66 NE10      29.88S
RAPID CITY     CLEAR     58  46  64 CALM      29.96S
GLASGOW        PTCLDY    56  41  57 E12       29.90S
SIDNEY         CLEAR     46  37  71 CALM      29.95S
WOLF POINT     CLEAR     48  38  68 CALM      29.92R
MILES CITY     PTCLDY    60  44  55 SE6       29.92S
BAKER          MOCLDY    50  46  86 CALM      29.96R
$$

CITY           SKY/WX    TMP DP  RH WIND       PRES   REMARKS
BILLINGS       PTCLDY    68  42  38 SW8       29.93F
GREAT FALLS    CLOUDY    62  43  49 SW6       29.92R
REGINA         CLEAR     50  43  76 SE5       29.90R
ESTEVAN        CLEAR     48  43  81 SW3       29.92R
$$




USA.gov is the U.S. government's official web portal to all federal, state and local government web resources and services.